Monterey, CA

8:16 AM PDT on May 25, 2017 (GMT -0700)
Monterey Peninsula

Weather History for KMRY - February, 2013

Change the Weather History Date:

Sunday, February 24, 2013

  Actual Average Record
Temperature  
Mean Temperature 50 °F 53 °F  
Max Temperature 62 °F 61 °F 73 °F (2012)
Min Temperature 37 °F 45 °F 37 °F (2013)
Degree Days  
Heating Degree Days 15    
Month to date heating degree days 377  
Since 1 July heating degree days 2202  
Cooling Degree Days 0    
Month to date cooling degree days 0  
Year to date cooling degree days 0  
Moisture  
Dew Point 34 °F    
Average Humidity 59    
Maximum Humidity 92    
Minimum Humidity 26    
Precipitation  
Precipitation 0.00 in - 0.43 in (1949)
Month to date precipitation 0.77  
Year to date precipitation 1.58  
Since 1 July precipitation 9.82  
Sea Level Pressure  
Sea Level Pressure 30.25 in    
Wind  
Wind Speed 6 mph (East)    
Max Wind Speed 14 mph    
Max Gust Speed 22 mph    
Visibility 10 miles    
Events      
T = Trace of Precipitation, MM = Missing Value Source: NWS Daily Summary

Daily Weather History Graph

Daily Weather History Graph

Search for Another Location

Airport or City:

Trip Planner

Search our weather history database for the weather conditions in past years. The results will help you decide how hot, cold, wet, or windy it might be!

Date:

Astronomy

Feb. 24, 2013 Rise Set
Actual Time 6:44 AM PST 5:57 PM PST
Civil Twilight 6:18 AM PST 6:23 PM PST
Nautical Twilight 5:48 AM PST 6:53 PM PST
Astronomical Twilight 5:18 AM PST 7:23 PM PST
Moon 5:13 PM PST (2/24) 5:43 AM PST (2/24)
Length of Visible Light 12h 05m
Length of Day
11h 13m
Waxing Gibbous, 99% of the Moon is Illuminated
Feb 24
Waxing Gibbous
Feb 25
Full
Mar 4
Last Quarter
Mar 11
New
Mar 19
First Quarter

Hourly Weather History & Observations

Time (PST) Temp. Windchill Dew Point Humidity Pressure Visibility Wind Dir Wind Speed Gust Speed Precip Events Conditions
12:54 AM 42.1 °F 40.2 °F 39.0 °F 89% 30.25 in 8.0 mi East 3.5 mph - N/A   Clear
1:54 AM 42.1 °F 40.2 °F 39.0 °F 89% 30.25 in 7.0 mi SSE 3.5 mph - N/A   Clear
2:54 AM 39.9 °F 37.8 °F 37.0 °F 89% 30.23 in 8.0 mi East 3.5 mph - N/A   Clear
3:54 AM 39.0 °F 34.0 °F 35.1 °F 86% 30.22 in 10.0 mi East 6.9 mph - N/A   Clear
5:54 AM 39.0 °F 32.8 °F 32.0 °F 76% 30.24 in 10.0 mi East 9.2 mph - N/A   Clear
6:54 AM 39.0 °F 32.3 °F 30.9 °F 73% 30.25 in 10.0 mi East 10.4 mph - N/A   Clear
7:54 AM 45.0 °F 42.6 °F 30.0 °F 56% 30.27 in 10.0 mi ENE 4.6 mph - N/A   Clear
8:54 AM 52.0 °F - 26.1 °F 37% 30.27 in 10.0 mi NE 11.5 mph - N/A   Clear
9:54 AM 55.0 °F - 23.0 °F 29% 30.28 in 10.0 mi Variable 5.8 mph - N/A   Clear
10:54 AM 55.9 °F - 23.0 °F 28% 30.28 in 10.0 mi NNE 10.4 mph - N/A   Clear
11:54 AM 59.0 °F - 24.1 °F 26% 30.25 in 10.0 mi NNE 10.4 mph 16.1 mph N/A   Clear
12:54 PM 61.0 °F - 26.1 °F 26% 30.22 in 10.0 mi East 9.2 mph - N/A   Clear
1:54 PM 59.0 °F - 35.1 °F 41% 30.22 in 10.0 mi WNW 5.8 mph - N/A   Clear
2:54 PM 55.0 °F - 41.0 °F 59% 30.22 in 10.0 mi West 10.4 mph - N/A   Clear
3:54 PM 54.0 °F - 39.9 °F 59% 30.22 in 10.0 mi WNW 10.4 mph - N/A   Clear
4:54 PM 53.1 °F - 41.0 °F 64% 30.22 in 10.0 mi WNW 9.2 mph - N/A   Clear
5:54 PM 51.1 °F - 39.0 °F 63% 30.24 in 10.0 mi South 3.5 mph - N/A   Clear
6:54 PM 48.9 °F - 37.0 °F 64% 30.25 in 10.0 mi South 4.6 mph - N/A   Clear
7:54 PM 46.9 °F - 37.0 °F 68% 30.26 in 10.0 mi SSE 4.6 mph - N/A   Clear
8:54 PM 45.0 °F 43.5 °F 36.0 °F 71% 30.27 in 10.0 mi ENE 3.5 mph - N/A   Clear
9:54 PM 48.0 °F - 35.1 °F 61% 30.29 in 10.0 mi SE 3.5 mph - N/A   Clear
10:54 PM 44.1 °F - 34.0 °F 68% 30.30 in 10.0 mi Calm Calm - N/A   Clear
11:54 PM 42.1 °F - 33.1 °F 70% 30.31 in 10.0 mi Calm Calm - N/A   Clear